Location: Newark
(48.6461°N, 4.3644°W)
Time: 16:01:09
(UTC+00:00)

STARLINK 1058 - Pass Details

Date: 11 December 2019
Orbit: 549 x 551 km, 53.0° (Epoch: 27 January)

Event Time Altitude Azimuth Distance (km) Brightness Sun altitude
Exits shadow 05:06:54 35° 139° (SE) 899 5.0 -27.4°
Drops below altitude 10° 05:09:27 10° 128° (SE) 1,834 7.0 -26.9°
Enters shadow 06:07:59 -65° 318° (NW) 12,170 10.4 -17.4°
